Weather History for KLUF - September, 2014

Change the Weather History Date:

Monday, September 1, 2014

  Actual Average Record
Temperature  
Mean Temperature 90 °F -  
Max Temperature 104 °F 105 °F 115 °F (1950)
Min Temperature 75 °F 72 °F 59 °F (1962)
Cooling Degree Days 24    
Growing Degree Days 40 (Base 50)    
Moisture  
Dew Point 47 °F    
Average Humidity 23    
Maximum Humidity 47    
Minimum Humidity 11    
Precipitation  
Precipitation 0.00 in - - ()
Sea Level Pressure  
Sea Level Pressure 29.74 in    
Wind  
Wind Speed 5 mph (North)    
Max Wind Speed 8 mph    
Max Gust Speed -    
Visibility 10 miles    
Events      
Averages and records for this station are not official NWS values.
T = Trace of Precipitation, MM = Missing Value Source: NWS Daily Summary

Daily Weather History Graph

Daily Weather History Graph

Search for Another Location

Airport or City:

Trip Planner

Search our weather history database for the weather conditions in past years. The results will help you decide how hot, cold, wet, or windy it might be!

Date:

Astronomy

Sep. 01, 2014 Rise Set
Actual Time 6:03 AM MST 6:54 PM MST
Civil Twilight 5:38 AM MST 7:20 PM MST
Nautical Twilight 5:08 AM MST 7:50 PM MST
Astronomical Twilight 4:37 AM MST 8:20 PM MST
Moon 12:33 PM MST 11:19 PM MST
Length of Visible Light 13h 41m
Length of Day
12h 51m
Waxing Crescent, 43% of the Moon is Illuminated
Sep 1
Waxing Crescent
Sep 2
First Quarter
Sep 8
Full
Sep 15
Last Quarter
Sep 23
New

Hourly Weather History & Observations

Time (MST) Temp. Dew Point Humidity Pressure Visibility Wind Dir Wind Speed Gust Speed Precip Events Conditions
12:58 AM 87.1 °F 46.8 °F 25% 29.73 in 10.0 mi SW 8.1 mph - N/A   Clear
1:58 AM 87.1 °F 43.2 °F 21% 29.72 in 10.0 mi SSW 5.8 mph - N/A   Clear
2:58 AM 85.3 °F 46.4 °F 26% 29.73 in 10.0 mi Calm Calm - N/A   Clear
3:58 AM 78.3 °F 48.7 °F 35% 29.74 in 10.0 mi North 2.3 mph - N/A   Clear
4:58 AM 78.6 °F 50.0 °F 37% 29.75 in 10.0 mi NE 2.3 mph - N/A   Clear
5:58 AM 75.4 °F 53.6 °F 47% 29.77 in 10.0 mi NNW 5.8 mph - N/A   Clear
6:58 AM 77.2 °F 54.0 °F 44% 29.79 in 10.0 mi NNW 4.6 mph - N/A   Clear
7:58 AM 84.0 °F 52.3 °F 33% 29.80 in 10.0 mi North 4.6 mph - N/A   Clear
8:58 AM 87.8 °F 48.4 °F 26% 29.81 in 10.0 mi NE 4.6 mph - N/A   Clear
9:58 AM 92.1 °F 47.5 °F 22% 29.81 in 10.0 mi ESE 3.5 mph - N/A   Clear
10:58 AM 95.4 °F 48.4 °F 20% 29.80 in 10.0 mi South 5.8 mph - N/A   Clear
11:58 AM 99.1 °F 46.9 °F 17% 29.78 in 10.0 mi East 5.8 mph - N/A   Clear
12:58 PM 100.8 °F 44.1 °F 14% 29.75 in 10.0 mi East 5.8 mph - N/A   Clear
1:58 PM 103.3 °F 44.2 °F 13% 29.73 in 10.0 mi Calm Calm - N/A   Clear
2:58 PM 103.8 °F 42.4 °F 12% 29.70 in 10.0 mi West 2.3 mph - N/A   Clear
3:58 PM 104.5 °F 42.6 °F 12% 29.69 in 10.0 mi North 4.6 mph - N/A   Clear
4:58 PM 104.5 °F 40.8 °F 11% 29.68 in 10.0 mi North 5.8 mph - N/A   Clear
5:58 PM 104.0 °F 40.8 °F 12% 29.67 in 10.0 mi NNE 4.6 mph - N/A   Clear
6:58 PM 101.7 °F 42.8 °F 13% 29.67 in 10.0 mi NNE 4.6 mph - N/A   Clear
7:58 PM 97.9 °F 45.9 °F 17% 29.68 in 10.0 mi NNE 1.2 mph - N/A   Clear
8:58 PM 93.7 °F 46.8 °F 20% 29.70 in 10.0 mi WNW 6.9 mph - N/A   Clear
9:58 PM 88.9 °F 47.7 °F 24% 29.71 in 10.0 mi WNW 4.6 mph - N/A   Clear
10:58 PM 86.9 °F 48.2 °F 26% 29.72 in 10.0 mi Calm Calm - N/A   Clear
11:58 PM 86.7 °F 49.3 °F 27% 29.73 in 10.0 mi Calm Calm - N/A   Clear